N208TC TJSJ-TNCE

Flight info

Callsign N208TC
Flight time N/A
Altitude 11500
Route VFR TFFG TNCE
Aircraft C208/M-G/L

Departure

Time N/A
Airport Luis Munoz Marin International Airport (TJSJ)

Arrival

Time 2026-05-05 01:56
Airport F. D. Roosevelt Airport (TNCE)
Time Latitude Longitude Altitude Speed Heading
2026-05-05 01:56 17.49311 -62.98407 135 ft 0 kts 50°
2026-05-05 01:56 17.49312 -62.98407 135 ft 0 kts 50°
2026-05-05 01:58 17.49314 -62.98403 135 ft 7 kts 50°
2026-05-05 01:58 17.49470 -62.98202 135 ft 64 kts 51°
2026-05-05 01:58 17.49837 -62.97742 150 ft 97 kts 53°
2026-05-05 01:59 17.50292 -62.97188 345 ft 99 kts 51°
2026-05-05 01:59 17.50758 -62.96676 612 ft 96 kts 43°
2026-05-05 01:59 17.51422 -62.96628 816 ft 103 kts 335°
2026-05-05 01:59 17.51972 -62.97017 1159 ft 93 kts 327°
2026-05-05 02:00 17.52501 -62.97407 1398 ft 93 kts 328°
2026-05-05 02:00 17.53034 -62.97797 1638 ft 94 kts 328°
2026-05-05 02:00 17.53579 -62.98191 1824 ft 102 kts 329°
2026-05-05 02:00 17.54204 -62.98583 2047 ft 106 kts 339°
2026-05-05 02:01 17.54896 -62.98880 2273 ft 110 kts 346°
2026-05-05 02:01 17.55643 -62.99128 2541 ft 115 kts 350°
2026-05-05 02:01 17.56413 -62.99353 2866 ft 114 kts 351°
2026-05-05 02:01 17.57159 -62.99562 3237 ft 109 kts 352°
2026-05-05 02:02 17.57864 -62.99753 3600 ft 104 kts 352°
2026-05-05 02:02 17.58565 -62.99940 3973 ft 100 kts 353°
2026-05-05 02:02 17.59232 -63.00115 4297 ft 100 kts 353°
2026-05-05 02:02 17.59913 -63.00293 4609 ft 102 kts 352°
2026-05-05 02:03 17.60604 -63.00473 4920 ft 103 kts 352°
2026-05-05 02:03 17.61309 -63.00658 5231 ft 105 kts 352°
2026-05-05 02:03 17.62021 -63.00844 5541 ft 106 kts 352°
2026-05-05 02:03 17.62733 -63.01031 5846 ft 107 kts 351°
2026-05-05 02:04 17.63463 -63.01223 6154 ft 108 kts 351°
2026-05-05 02:04 17.64205 -63.01417 6432 ft 112 kts 351°
2026-05-05 02:04 17.64978 -63.01619 6704 ft 116 kts 351°
2026-05-05 02:04 17.65770 -63.01826 6971 ft 119 kts 350°
2026-05-05 02:05 17.66582 -63.02039 7235 ft 121 kts 350°
2026-05-05 02:05 17.67397 -63.02253 7492 ft 123 kts 350°
2026-05-05 02:05 17.68236 -63.02474 7750 ft 125 kts 349°
2026-05-05 02:05 17.69085 -63.02697 8006 ft 127 kts 349°
2026-05-05 02:06 17.69945 -63.02922 8261 ft 128 kts 349°
2026-05-05 02:06 17.70808 -63.03149 8514 ft 128 kts 349°
2026-05-05 02:06 17.71678 -63.03378 8767 ft 129 kts 349°